Meath Environmental Platform

Observations for Trim Patrick St

Time AQI Temp °C Hum % Pres Pa CO μg/m³ H₂S μg/m³ NO μg/m³ NO₂ μg/m³ O₃ μg/m³ SO₂ μg/m³ PM1 μg/m³ PM2.5 μg/m³ PM10 μg/m³
Monday 3 August 2026
15:00 3 31.4 35 69,282 0 0 1.42 24.25 156.1 12.06 4.57 10.57 11.62
14:58 3 31.4 35 69,302 0 0 1.46 24.26 121.94 12.06 4.57 11.35 12.48
14:57 3 31.3 35 69,328 0 0 1.54 17.38 121.67 11.97 5.43 12.11 13.32
14:56 3 31.2 34 69,334 0 0 1.4 23.34 117.08 10.1 6.29 12.23 13.45
14:55 3 31.2 34 69,349 0 0 1.46 16.07 86.05 10.51 4.57 11.41 12.55
14:54 3 31.2 34 69,338 0 0 1.45 20.39 117.59 12.36 6.29 11.4 12.54
14:53 3 31.1 34 69,322 0 0 1.46 22.07 102.97 10.74 4.57 11.42 12.57
14:50 3 31.1 34 69,306 0 0 1.43 24.75 147.83 11.25 5.43 12.21 13.43
14:46 3 31 34 69,320 0 0 1.41 22.57 110.26 10.71 4.57 10.58 11.63
14:43 3 30.9 35 69,260 0 0 1.46 20.62 134.03 11.86 4.57 12.11 13.33
14:42 3 30.8 34 69,248 0 0 1.37 20.67 104.29 10.43 5.43 12.2 13.42
14:40 3 30.8 34 69,250 0 0 1.34 17.98 102.61 11.03 6.29 12.99 14.29
14:37 3 30.6 35 69,271 0 0 1.47 15.15 96.47 11.34 5.43 11.31 12.44
14:36 3 30.5 35 69,242 0 0 1.46 27.97 139.5 10.03 3.71 10.54 11.59
14:35 3 30.4 36 69,230 0 0 1.5 21.94 132.93 11.12 5.43 12.84 14.12
14:34 3 30.4 35 69,216 0 0 1.45 22.48 112.37 9.03 4.57 10.54 11.59
14:33 3 30.3 36 69,226 0 0 1.46 20.05 107.86 10.88 5.43 11.28 12.4
14:32 3 30.3 36 69,212 0 0.19 1.46 27.9 133 10.01 4.57 10.48 11.53
14:31 3 30.3 36 69,220 0 0 1.45 24.68 145.4 9.62 5.43 11.29 12.42
14:30 3 30.3 36 69,206 0 0 1.46 18.58 94.33 11.55 4.57 9.7 10.67